Location: ?????????
(38.5999°N, 22.7695°E)
Time: 09:38:37
(UTC+00:00)

Geosat - Pass Details

Date: 23 May 2024
Orbit: 760 x 763 km, 108.1° (Epoch: 24 June)

Event Time Altitude Azimuth Distance (km) Brightness Sun altitude
Rises 02:20:39 0° 165° (SSE) 3,205 7.0 -9.2°
Reaches altitude 10° 02:22:57 10° 169° (S) 2,284 6.2 -8.8°
Maximum altitude 02:27:50 56° 247° (WSW) 906 4.1 -8.0°
Drops below altitude 10° 02:32:45 10° 326° (NW) 2,301 6.5 -7.2°
Sets 02:35:05 0° 330° (NNW) 3,231 7.3 -6.9°
